Simultaneous Nadir Overpasses (SNOs) Predictions

Prediction of SNOs between LANDSAT-8 and NOAA-19 Satellite Orbit:

Table of predicted SNOs for the next 14.0 days since TLE Epoch: 7/30/2022
Index Date (LANDSAT-8) Time (LANDSAT-8) Lat,Lon (LANDSAT-8) SZA (LANDSAT-8 ) Date (NOAA-19) Time (NOAA-19) Lat,Lon (NOAA-19) SZA (NOAA-19 ) Distance(km) Time Diff (sec)
1 07/30/2022 08:40:00 80.82, 85.88 63.99 07/30/2022 08:40:02 80.82, 86.06 64.01 3.30 2
2 08/01/2022 14:13:45 -80.84,-177.31 115.42 08/01/2022 14:12:58 -80.83,-177.28 115.45 1.19 47
3 08/01/2022 15:03:12 80.81, -9.94 64.55 08/01/2022 15:03:55 80.82, -9.84 64.58 2.07 43
4 08/03/2022 20:36:57 -80.83, 86.86 114.84 08/03/2022 20:36:51 -80.82, 87.00 114.84 2.74 6
5 08/06/2022 02:10:42 80.83,-176.66 65.75 08/06/2022 02:09:42 80.83,-176.52 65.75 2.61 60
6 08/06/2022 03:00:09 -80.83, -9.01 114.24 08/06/2022 03:00:45 -80.83, -9.13 114.24 2.06 36
7 08/08/2022 08:33:54 80.82, 87.42 66.37 08/08/2022 08:33:35 80.83, 87.51 66.39 2.41 19
8 08/10/2022 14:07:39 -80.83,-175.83 112.95 08/10/2022 14:06:33 -80.84,-175.94 112.98 2.03 66
9 08/10/2022 14:57:05 80.83, -8.19 67.06 08/10/2022 14:57:27 80.83, -8.12 67.07 1.46 22
10 08/12/2022 20:30:50 -80.84, 88.54 112.25 08/12/2022 20:30:25 -80.83, 88.55 112.27 1.61 25



Historial Predications of SNOs between LANDSAT-8 and NOAA-19
